TIROS 6 DEB, 29006

Orbit data source: Space-Track

TIROS 6 DEB, 29006 is space debris in LEO originally from a launch on Tue, 18 Sep 1962 UTC launched from the Air Force Eastern Test Range (AFETR). Debris objects in space refer to the collection of defunct objects orbiting the Earth. Examples of debris include non-operational satellites, rocket bodies, and fragments generated from explosions, collisions, or faulty payload assembly.

Loading next visibility...
Identifier
29006, 1962-047F
Orbit
LEO
Country
Flag of USUS
Related business
Manufacturer
Unknown
Mission
Spacecraft
Bus & Motor
Unknown
Mass
Unknown
Launch date (UTC)
1962-09-18 (63 years ago)
Launch vehicle
Unknown
Launch site
Air Force Eastern Test Range (AFETR)
Object type
Payload
Rocket body
Debris
Shape & HBR
Unknown shape, 0.1 m
Radar Cross Section
Small (<0.1 m²)

Expand to show TLE details & history
Last TLE update: 2 days ago

TLE from 2 days ago
0 TIROS 6 DEB
1 29006U 62047F   25352.47124446  .00000581  00000-0  90906-4 0  9997
2 29006  58.3107 346.8009 0015571  98.7758 261.5050 14.85560532674775
Epoch: 2025-12-18T11:18Z
TLE epoch observation values (Epoch: 2025-12-18T11:18:35.521Z)
Latitude
0.00003°
Longitude
89.82664°
Altitude
614.86 km
Speed
7.552 km/s
True Right ascension
23h 07m 12s
True Declination
0° 00' 00"
Sunlit
Object was in daylight at epoch
Visualization orbit readout
Latitude
Unknown
Longitude
Unknown
Altitude
Unknown
Speed
Unknown
Apparent Right ascension
Unknown
Apparent Declination
Unknown
Sunlit
N/A
Visualization observer readout
Local Sidereal Time
14:24:52
Azimuth
Unknown
Elevation
Unknown
Doppler factor
Unknown
Orbital elements
Apogee altitude
622.172 km
Perigee altitude
600.406 km
Semi-major axis
6,989.426 km
Eccentricity
0.00156
Inclination
58.3107°
RAAN
346.8009°
Arg. of periapsis
98.7758°
True anomaly
261.32858°
Mean anomaly
261.505°
Eccentric anomaly
261.41678°
Mean motion
3.71433 °/min
Orbital period
96.92 mins
BSTAR
0.000090906
Loading maneuver chart data...
Computing Atmospheric mass density...
Loading historical data...
Loading historical data...
Loading historical data...
Loading historical data...
Loading historical data...
Loading historical data...
Loading historical data...

Documentation

Showing up to 5 results
|